Weather in Semenovka

Russia / Saratov Oblast     51°46′03″N   47°20′29″E
temp.,
°C
wind,
m/s
gust,
m/s
humid.,
%
clouds,
%
prec.,
mm/h
press.,
hPa
HPBL,
m
5 march, fri
fri501:00+1sw81583100 0.0 1004647
04:00+1sw7138899 0.0 1003567
07:00+1wsw714100100 1.1 1002520
10:00+1wsw71399100 1.3 1003534
13:00+1wsw61210095 0.0 1005542
16:000w499094 0.1 1007480
19:00−3w448669 0.0 101058
22:00−6nw348862 0.0 101462
6 march, sat
sat601:00−7nw338886 0.0 101428
04:00−9wnw238754 0.0 101721
07:00−10w2288100 0.0 101721
10:00−8nw239099 0.0 101897
13:00−6nne1185100 0.0 1017231
16:00−5ene2488100 0.0 1016325
19:00−6ene2393100 0.0 101565
22:00−7ne3492100 0.0 1014123
7 march, sun
sun701:00−9nne3391100 0.0 101371
04:00−11n228894 0.0 101423
07:00−12wnw33903 0.0 101527
10:00−11w35881 0.0 1015171
13:00−8wsw58890 0.0 1015385
16:00−5sw598737 0.0 1014664
19:00−7ssw6138796 0.0 1012416
22:00−5ssw9168498 0.0 1009740
8 march, mon
mon801:00−4sw111894100 0.6 10051020
04:00−3wsw101689100 1.5 10051002
07:00−9wsw5108159 0.1 1006161
10:00−7sw498157 0.1 1007228
13:00−2sw6119399 0.1 1005749
16:00−1sw9149699 1.1 1003987
19:00−1w91495100 1.2 1002942
22:00−6wnw81578100 1.7 1006830
9 march, tue
tue901:00−11w614865 0.0 1010415
04:00−12wsw511903 0.0 1011257
07:00−14wsw46936 0.0 1013117
10:00−12wsw369220 0.0 1014241
13:00−9wsw359084 0.0 1014301
16:00−8sw228892 0.0 1014300
19:00−11wsw1193100 0.0 101321
22:00−11nnw2392100 0.0 101325